Погода в Юракове

Россия / Рязанская область     54°01′00″N   39°57′01″E
темп.,
°C
ветер,
м/с
пор.,
м/с
влажн.,
%
обл.,
%
осадки,
мм/ч
давл.,
гПа
погр.,
м
11 апреля, вс
вс1100:00+4сз22590 0.0 102710
03:00+3сз22620 0.0 102810
06:00+2сз11640 0.0 102910
09:00+7св115099 0.0 1030237
12:00+11ссв333994 0.0 1030965
15:00+13св3437100 0.0 10301114
18:00+11св364993 0.0 1030190
21:00+7всв386549 0.0 1031135
12 апреля, пн
пн1200:00+5св41072100 0.0 1032189
03:00+4св51266100 0.0 1032274
06:00+4св51268100 0.0 1031343
09:00+7всв61179100 0.0 1031453
12:00+12в5770100 0.0 1030641
15:00+15в5763100 0.0 1028707
18:00+14в486955 0.0 1027246
21:00+11в41383100 0.0 1027212
13 апреля, вт
вт1300:00+10юв412789 0.0 1027180
03:00+9юв4117761 0.0 1027160
06:00+8ююв4107952 0.0 1027170
09:00+14ююв5105120 0.0 1026374
12:00+18ююв6839100 0.0 1026746
15:00+20ююв683231 0.0 10251856
18:00+18юв354874 0.0 102497
21:00+13юв495950 0.0 1024136
14 апреля, ср
ср1400:00+11ююв413625 0.0 1024243
03:00+9ююв4106815 0.0 1024161
06:00+8ююв367199 0.0 102496
09:00+14ююв485399 0.0 1023318
12:00+19ююв573555 0.0 10221021
15:00+20ююв572898 0.0 10211946
18:00+17вюв3543100 0.0 102089
21:00+13юв3355100 0.0 102037
15 апреля, чт
чт1500:00+11юв226386 0.0 101915
03:00+9юв23688 0.0 101918
06:00+8вюв2271100 0.0 101821
09:00+14вюв245580 0.0 1017287
12:00+18вюв3441100 0.0 10161034
15:00+19вюв4434100 0.0 10142266
18:00+17всв3648100 0.0 1013111
21:00+12в246182 0.0 101354